www.pogodaiklimat.ru

Погода и климат >> Архив погоды >> Индонезия >> Понтианак


ПОГОДА в Понтианаке

  • Прогноз погоды в Понтианаке
  • Монитор погоды в Понтианаке

АРХИВ ПОГОДЫ в Понтианаке

Время (UTC), дата Ветер
(напр.,м/с)
 
Видим.   Явления Облачность Т
(С)
Тd
(С)
f
(%)
Тe
(С)
Тes
(С)
Комфортность P
(гПа)
Po
(гПа)
Тmin
(С)
Tmax
(С)
R
(мм)
R24
(мм)
S
(см)
00 14.05 В 2 10 км {гроза} 9/3 360 м
[Cu hum Ac As]
+24.4 +23.8 96 +33 +34 очень
душно
1011.6 1010.9 +24.2 17
03 14.05 В 3 10 км 9/3 360 м
[Cu hum Ac trans Ci fib]
+26.3 +23.7 86 +36 +42 очень
душно
1012.2 1011.5
06 14.05 СВ 3 10 км 9/3 360 м
[Cu hum Ac trans Ci fib]
+29.1 +24.7 77 +41 +47 опасность
перегрева
1009.9 1009.2
09 14.05 штиль 0 10 км 9/3 360 м
[Cu hum Ac trans Ci fib]
+30.9 +24.8 70 +44 +46 опасность
перегрева
1008.5 1007.8
12 14.05 В 2 6000 м 9/3 360 м
[Cu hum Ac trans Ci fib]
+29.3 +25.1 78 +42 +42 опасность
перегрева
1009.2 1008.5 +31.4
15 14.05 штиль 0 6000 м 8/3 360 м
[Cu hum Ac trans Ci fib]
+27.2 +24.6 86 +39 +39 очень
душно
1010.4 1009.7
18 14.05 штиль 0 6000 м 8/3 360 м
[Cu hum Ac trans Ci fib]
+25.5 +24.1 92 +35 +35 очень
душно
1009.8 1009.1
21 14.05 штиль 0 6000 м 8/3 360 м
[Cu hum Ac trans Ci fib]
+25.0 +24.0 94 +34 +34 очень
душно
1009.9 1009.2
00 15.05 СВ 2 6000 м 6/3 360 м
[Cu hum Ac trans Ci fib]
+25.0 +24.1 95 +34 +36 очень
душно
1011.4 1010.7 +24.2
03 15.05 СВ 2 10 км 8/5 360 м
[Cu hum Ac trans Ci fib]
+30.5 +25.6 75 +45 +51 опасность
перегрева
1011.9 1011.2
06 15.05 СВ 3 10 км 9/6 330 м
[Cu hum Ac trans Ci fib]
+33.7 +21.8 50 +42 +46 опасность
перегрева
1009.0 1008.3
09 15.05 ЮВ 3 10 км 9/6 300 м
[Cb calv Ac trans Ci fib]
+34.4 +22.6 50 +44 +44 опасность
перегрева
1007.2 1006.5
12 15.05 ЮЗ 2 8000 м зарница 8/5 330 м
[Cb calv Ac trans Ci fib]
+28.7 +25.3 82 +42 +42 опасность
перегрева
1009.0 1008.3 +34.7
15 15.05 З 2 6000 м 6/3 330 м
[Cb cap Ac trans Ci fib]
+27.3 +24.7 86 +39 +39 очень
душно
1011.4 1010.7
18 15.05 штиль 0 1000 м гроза, ливневой дождь 10/8 180 м
[Cb cap Ac As]
+25.8 +24.9 95 +37 +37 очень
душно
1010.5 1009.8 19
21 15.05 З 3 5000 м гроза, ливневой дождь 10/8 240 м
[Cb cap Ac As]
+23.6 +23.0 96 +31 +31 очень
душно
1011.0 1010.3 18
00 16.05 штиль 0 8000 м в посл. час дождь {гроза} 9/8 360 м
[Cb cap Ac As]
+23.7 +22.7 94 +31 +32 очень
душно
1012.0 1011.3 +22.8 8
03 16.05 ЮЗ 2 10 км 9/4 360 м
[Cu hum Ac trans Ci fib]
+29.0 +24.7 78 +41 +47 опасность
перегрева
1012.5 1011.8
06 16.05 ЮЗ 3 8000 м осадки на расстоянии 9/8 330 м
[Cb cap Ac trans Ci fib]
+32.0 +25.0 67 +46 +48 опасность
перегрева
1009.3 1008.6
09 16.05 З 2 10 км {гроза, дождь} 9/6 330 м
[Cb cap Ac trans Ci fib]
+28.3 +25.6 85 +42 +43 опасность
перегрева
1008.5 1007.8 0.0
12 16.05 штиль 0 6000 м {гроза, дождь} 9/5 360 м
[Cu hum Ac As]
+27.8 +25.8 89 +41 +41 опасность
перегрева
1010.8 1010.1 +32.4 0.0
15 16.05 штиль 0 6000 м слаб. ливневой дождь, в посл. час гроза 9/6 330 м
[Cb cap Ac As]
+25.6 +24.7 95 +36 +36 очень
душно
1013.1 1012.4 13
18 16.05 штиль 0 6000 м слаб. ливневой дождь, в посл. час гроза 9/6 330 м
[Cb cap Ac As]
+25.0 +24.0 94 +34 +34 очень
душно
1012.9 1012.2 0.2
21 16.05 штиль 0 6000 м {дождь} 9/6 360 м
[Cu hum Ac As]
+24.2 +23.5 96 +33 +33 очень
душно
1010.3 1009.6 0.0
00 17.05 штиль 0 8000 м 9/5 240 м
[Cu hum Ac trans]
+24.4 +23.5 95 +33 +34 очень
душно
1011.8 1011.1 +23.6 14
03 17.05 штиль 0 10 км 9/4 360 м
[Cu hum Ac trans]
+27.6 +23.4 78 +37 +44 очень
душно
1013.0 1012.3
06 17.05 СВ 2 10 км 9/4 400 м
[Cu hum Ac trans Ci fib]
+30.2 +24.2 70 +42 +49 опасность
перегрева
1010.3 1009.6
09 17.05 штиль 0 8000 м гроза без осадков 9/6 360 м
[Cb cap Ac trans Ci fib]
+31.6 +23.9 64 +43 +44 опасность
перегрева
1008.2 1007.5
12 17.05 З 2 3000 м гроза, ливневой дождь 10/6 330 м
[Cb cap Ac As]
+24.7 +3.8 26 +24 +24 комфорт 1011.0 1010.3 +32.2 14
15 17.05 штиль 0 5000 м слаб. дождь {гроза} 10/6 330 м
[Cb cap Ac As]
+24.9 +23.9 94 +34 +34 очень
душно
1012.0 1011.3 8
18 17.05 штиль 0 6000 м в посл. час дождь {гроза} 10/6 330 м
[Cb cap Ac As]
+24.6 +23.7 95 +33 +33 очень
душно
1011.5 1010.8 0.5
21 17.05 штиль 0 6000 м зарница 9/5 330 м
[Cu hum Ac trans Ci fib]
+24.2 +23.5 96 +33 +33 очень
душно
1010.7 1010.0
00 18.05 В 2 10 км 9/3 300 м
[Cu hum Ac trans Ci fib]
+24.4 +23.5 95 +33 +34 очень
душно
1012.2 1011.5 +23.9 23
03 18.05 В 3 10 км 9/4 330 м
[Cu hum Ac trans Ci fib]
+28.8 +24.8 79 +41 +46 опасность
перегрева
1012.7 1012.0
06 18.05 В 2 10 км 9/8 360 м
[Cu hum Ac trans Ci fib]
+31.4 +24.0 65 +43 +46 опасность
перегрева
1009.9 1009.2
09 18.05 СВ 2 10 км 9/5 400 м
[Cu hum Ac trans Ci fib]
+32.7 +23.1 57 +43 +44 опасность
перегрева
1007.5 1006.8
12 18.05 ЮЗ 2 6000 м 9/4 360 м
[Cu hum Ac trans Ci fib]
+30.2 +25.7 77 +45 +45 опасность
перегрева
1009.2 1008.5 +33.0
15 18.05 ЮВ 4 6000 м гроза без осадков 9/6 330 м
[Cb cap Ac trans Ci fib]
+28.0 +25.5 86 +41 +41 опасность
перегрева
1011.4 1010.7
18 18.05 штиль 0 6000 м зарница {гроза} 9/6 360 м
[Cb cap Ac trans Ci fib]
+27.1 +25.3 90 +39 +39 очень
душно
1010.5 1009.8
21 18.05 штиль 0 6000 м в посл. час дождь {гроза} 9/6 360 м
[Cu hum Ac trans Ci fib]
+25.5 +24.8 96 +36 +36 очень
душно
1010.0 1009.3 22
00 19.05 штиль 0 10 км {гроза, дождь} 8/3 360 м
[Cu hum Ac trans Ci fib]
+26.9 +25.9 94 +40 +41 очень
душно
1011.2 1010.5 +24.4 22
03 19.05 ЮВ 2 10 км 9/6 330 м
[Cu hum Ac trans Ci fib]
+30.4 +25.0 73 +44 +48 опасность
перегрева
1012.5 1011.8
06 19.05 ЮВ 3 10 км 9/6 330 м
[Cu hum Ac trans Ci fib]
+33.1 +23.9 59 +45 +49 опасность
перегрева
1009.1 1008.4
09 19.05 штиль 0 8000 м осадки на расстоянии 9/8 330 м
[Cb cap Ac As]
+32.7 +23.4 58 +43 +44 опасность
перегрева
1007.8 1007.1
12 19.05 штиль 0 6000 м зарница {гроза, дождь} 8/4 300 м
[Cb cap Ac trans Ci fib]
+26.2 +24.5 90 +37 +37 очень
душно
1010.1 1009.4 +33.8 6
15 19.05 штиль 0 6000 м 9/4 330 м
[Cu hum Ac trans Ci fib]
+25.4 +23.7 90 +35 +35 очень
душно
1011.9 1011.2
18 19.05 С 2 6000 м зарница 9/5 300 м
[Cb cap Ac trans Ci fib]
+25.5 +24.5 94 +36 +36 очень
душно
1011.1 1010.4
21 19.05 СВ 2 6000 м зарница 9/5 300 м
[Cb cap Ac trans Ci fib]
+25.0 +23.8 93 +34 +34 очень
душно
1009.7 1009.0
00 20.05 СВ 2 8000 м 9/5 360 м
[Cb cap Ac trans]
+25.4 +24.0 92 +35 +36 очень
душно
1011.8 1011.1 +24.8
03 20.05 С 2 10 км 9/4 360 м
[Cu hum Ac trans Ci fib]
+30.2 +25.1 74 +44 +49 опасность
перегрева
1012.0 1011.3
06 20.05 В 2 10 км 9/6 330 м
[Cu hum Ac trans Ci fib]
+32.4 +24.8 64 +45 +50 опасность
перегрева
1009.8 1009.1
09 20.05 З 3 8000 м гроза без осадков 9/6 300 м
[Cb cap Ac trans Ci fib]
+26.5 +23.5 84 +36 +37 очень
душно
1008.8 1008.1 0.9
12 20.05 штиль 0 7000 м зарница {гроза, дождь} 9/5 360 м
[Cb cap Ac trans]
+26.6 +24.9 90 +38 +38 очень
душно
1010.6 1009.9 +33.4 0.9
15 20.05 ЮВ 2 6000 м зарница 9/4 330 м
[Cb cap Ac trans]
+26.0 +24.1 89 +36 +36 очень
душно
1011.0 1010.3
18 20.05 штиль 0 6000 м гроза без осадков 9/6 270 м
[Cb cap Ac trans]
+25.3 +23.9 92 +35 +35 очень
душно
1011.1 1010.4

 

Местоположение метеостанции Понтианак (Индонезия): широта -0.15 долгота 109.40 высота над уровнем моря 3 м.

В архиве по умолчанию представлена погода в Понтианаке за последнюю неделю. Архивные данные за месяц целиком и за предыдущие месяцы, начиная с января 2011 года, Вы можете получить, выбрав интересующий диапазон дат из раскрывающегося списка и нажав кнопку "Ввод!".


*Определитесь, кто Вы:
робот инопланетянин человек

Внимание! Время в таблицах - всемирное. Для получения местного времени необходимо прибавить поправку, которая равна 7 ч.

Смотрите также архив погоды в соседних городах и на ближайших метеорологических станциях:

Погода в Кетапанге (Индонезия) (199 км)
Погода в Кучинге (Малайзия) (209 км)
Погода в Парохе (Индонезия) (214 км)
Погода в Синтанге (Индонезия) (239 км)
Погода в Нангапинохе (Индонезия) (266 км)
Погода в Танджунгпандане (Индонезия) (342 км)
Погода в Пангкалан-Буне (Индонезия) (382 км)
Погода в Сибу (Малайзия) (386 км)
Погода на Путусиббау (Индонезия) (409 км)
Погода в Панкалпинанге (Индонезия) (427 км)

Пояснения к столбцам:

Ветер - указаны скорость ветра в м/с - средняя за 10 мин, порывы в срок и между сроками (в фигурных скобках) и направление, откуда дует ветер: С - северный, СВ - северо-восточный, В - восточный, ЮВ - юго-восточный, Ю - южный, ЮЗ - юго-западный, З - западный, СЗ - северо-западный.
Видимость - горизонтальная дальность видимости в метрах или километрах. При видимости от 1 до 10 км при отсутствии осадков обычно наблюдается дымка, при ухудшении видимости до 1 км и менее - туман. В сухую погоду видимость может ухудшаться дымом, пылью или мглою.
Явления - указаны атмосферные явления, наблюдавшиеся в срок или в последний час перед сроком; фигурными скобками обозначены явления, наблюдавшиеся между сроками (за 1-3 часа до срока); квадратными скобками обозначены град или гололедные отложения с указанием их диаметра в мм.
Облачность - указаны через наклонную черту общая и нижняя облачность в баллах и высота нижней границы облаков в метрах; квадратными скобками обозначены формы облаков: Ci - перистые, Cs - перисто-слоистые, Cc - перисто-кучевые, Ac - высококучевые, As - высокослоистые, Sc - слоисто-кучевые, Ns - слоисто-дождевые, Cu - кучевые, Cb - кучево-дождевые. Подробнее классификацию облаков см. в Атласе облаков (PDF).
T - Температура воздуха - температура, измеренная на высоте 2 м над землей.
Td - Температура точки росы - температура, при понижении до которой содержащийся в воздухе водяной пар достигнет насыщения.
f - Относительная влажность воздуха - влажноcть воздуха, измеренная на высоте 2 м над землей.
Te - Эффективная температура - температура, которую ощущает одетый по сезону человек в тени. Характеристика душности погоды. При расчете учитывается влияние влажности воздуха и скорости ветра на теплоощущения человека.
Tes - Эффективная температура на солнце - температура, которую ощущает человек, с поправкой на солнечный нагрев. Характеристика знойности погоды. Зависит от высоты солнца над горизонтом, облачности и скорости ветра. Ночью, в пасмурную погоду, а также при ветре 12 м/с и более поправка равна нулю.
P - Атмосферное давление - приведенное к уровню моря атмосферное давление.
Po - Атмосферное давление - измеренное на уровне метеостанции атмосферное давление.
Tmin - Минимальная температура - минимум температуры воздуха на высоте 2 м над землей.
Tmax - Максимальная температура - максимум температуры воздуха на высоте 2 м над землей.
R - Количество осадков - Количество выпавших осадков за период времени, мм. При наведении курсора мыши на число - период времени, за который выпало указанное количество осадков.
R24 - Количество осадков - Количество выпавших осадков за 24 часа, мм.
S - Снежный покров - Высота снежного покрова, см. При наведении курсора мыши на число - состояние снежного покрова и степень покрытия местности в баллах.